Regional Weather Roundup
Issued by NWS Grand Forks, ND

Home | Current Version | Previous Version | Graphics & Text | Print | Product List | Glossary On
Versions: 1 2 3 4 5 6 7 8 9 10 11 12 13 14 15 16 17 18 19 20 21 22 23 24 25 26 27 28 29 30 31 32 33 34 35 36 37 38 39 40 41 42 43 44 45 46 47 48 49 50
000
ASUS43 KFGF 280931
RWRFGF
PRAIRIE TO PINES  WEATHER ROUNDUP
NATIONAL WEATHER SERVICE EASTERN NORTH DAKOTA/GRAND FORKS ND
300 AM CST WED JAN 28 2015

 **SATELLITE DATA USED TO AUGMENT SKY COVER AT AUTOMATED STATIONS**
 *****  WEATHER ACROSS EASTERN NORTH DAKOTA  *****

CITY           SKY/WX    TMP DP  RH WIND       PRES   REMARKS
GRAND FORKS    CLOUDY    34  32  92 S10       29.84F FOG
GRAND FRKS AFB CLOUDY    33  32  97 S13       29.83F FOG     WCI  24
DEVILS LAKE    CLOUDY    32  30  93 SE7       29.75F VSB 1/2
FARGO          CLOUDY    35  31  85 SE20G26   29.84F WCI  24
WAHPETON ARPT  CLOUDY    32  30  93 SE15      29.85F WCI  22
$$

 ***** WEATHER ACROSS CENTRAL AND WESTERN NORTH DAKOTA  *****

CITY           SKY/WX    TMP DP  RH WIND       PRES   REMARKS
BISMARCK       CLEAR     29  28  96 CALM      29.75S
MINOT          MOCLDY    30  27  88 W5        29.74S
JAMESTOWN      FOG       32  32 100 S12       29.76F VSB 1/4 WCI  23
MINOT AFB      MOCLDY    28  28 100 N6        29.74F WCI  22
GARRISON         N/A     28  26  92 CALM      29.73S
WILLISTON      CLOUDY    30  28  92 N3        29.74S
DICKINSON      CLEAR     31  26  82 SW5       29.72F
HETTINGER      CLEAR     28  25  88 W3        29.76F
$$

 *****  OTHER AIRPORT OBSERVATIONS IN OUR AREA  *****

CITY           SKY/WX    TMP DP  RH WIND       PRES   REMARKS
WALHALLA       FOG       32  32 100 SE5       29.83F VSB 1/2
GRAFTON AIRPOR NOT AVBL
VALLEY CITY AR FOG       32  32 100 S10       29.78F VSB 1/4 WCI  24
CANDO          FOG       32  32 100 SE5       29.76F VSB 1/4
CAVALIER APRT  FOG       32  32 100 SE5       29.84S VSB 1/4
GWINNER        CLOUDY    32  32 100 CALM      29.81F VSB 1/4
SHEYENNE NWR     N/A     33  32  96 S12       29.95S WCI  24
ROLLA          FOG       30  30 100 SE6       29.76S VSB 1/4 WCI  24
 ***** THE ABOVE OBSERVATIONS ARE NON NWS ARE NOT QUALITY
       CONTROLLED AND MAY MIS-REPORT RAIN FOR SNOW...
$$

  *****  WEATHER ACROSS NORTHERN MINNESOTA  *****

CITY           SKY/WX    TMP DP  RH WIND       PRES   REMARKS
FLAG ISLAND    CLOUDY    28  25  86 SE6       29.92S WCI  22
WARROAD        CLOUDY    30  27  86 SE7       29.90F WCI  23
ROSEAU         CLOUDY    30  27  86 SE9       29.89F WCI  22
HALLOCK        CLOUDY    34  30  86 SE13      29.85F WCI  25
THF RVR FALLS  CLOUDY    30  28  93 SE8       29.86F WCI  23
BAUDETTE       CLOUDY    28  23  81 SE7       29.92F WCI  21
WASKISH        CLOUDY    30  27  86 SE7       29.92F WCI  23
CROOKSTON      CLOUDY    34  30  86 S14       29.86F WCI  24
STEPHEN NDAWN    N/A     34  30  86 S12         N/A
GREENBUSH NDAW   N/A     30  28  93 S12         N/A  WCI  21
$$
  *****  WEATHER ACROSS CENTRAL AND WEST MINNESOTA  *****

CITY           SKY/WX    TMP DP  RH WIND       PRES   REMARKS
FOSSTON        CLOUDY    30  28  93 SE10      29.87F WCI  21
BEMIDJI        CLOUDY    30  28  90 SE10      29.90F WCI  21
PARK RAPIDS    CLOUDY    31  29  92 SE14      29.91F WCI  21
ELBOW LAKE     CLOUDY    32  30  94 SE21      29.87F WCI  19
WADENA         CLOUDY    30  28  93 SE13        N/A  WCI  20
DETROIT LAKES  CLOUDY    34  32  93 S17G24    29.87F WCI  23
MOORHEAD       MOCLDY    34  34 100 S17G23    29.85F WCI  23
FERGUS FALLS   CLEAR     32  30  93 SE17G23   29.89F WCI  21
MORRIS MN      CLOUDY    34  30  86 SE22G29   29.88F FOG     WCI  22
STAPLES        CLOUDY    28  28 100 SE12      29.93F FOG     WCI  18
$$
  *****  WEATHER ELSEWHERE ACROSS MINNESOTA  *****

CITY           SKY/WX    TMP DP  RH WIND       PRES   REMARKS
DULUTH         MOCLDY    24  19  81 S9        30.02F WCI  14
INTRNTL FALLS  CLOUDY    26  23  88 SE5       29.97F WCI  20
ELY            CLOUDY    27  23  86 S6        30.02S WCI  20
CLOQUET        CLOUDY    25  21  86 S6        30.03F WCI  18
WHEATON        PTCLDY    30  28  93 SE17      29.88F WCI  18
BRAINERD       CLOUDY    30  27  88 S12G20    29.99F WCI  20
HIBBING        CLOUDY    27  22  81 VRB6      30.00F WCI  20
ALEXANDRIA     CLOUDY    32  29  88 SE17      29.92F WCI  21
SAINT CLOUD    CLOUDY    31  28  89 SE10      30.02S WCI  22
MINNEAPOLIS    CLOUDY    30  25  81 SE13      30.08F WCI  20
$$

  *****  WEATHER ACROSS SOUTH DAKOTA  *****

CITY           SKY/WX    TMP DP  RH WIND       PRES   REMARKS
SIOUX FALLS    PTCLDY    34  30  85 SE10      29.89F
BROOKINGS      NOT AVBL
WATERTOWN      CLEAR     33  30  88 S15       29.81F WCI  23
HURON          PTCLDY    34  30  85 SE14      29.78F WCI  25
SISSETON         N/A     32  32 100 S17       29.84F WCI  21
ABERDEEN       PTCLDY    33  30  88 S7        29.79F
MITCHELL       PTCLDY    35  31  85 SE14      29.81F
PIERRE         PTCLDY    31  30  96 E3        29.71F
MOBRIDGE       MOCLDY    33  30  88 CALM      29.72S
RAPID CITY     CLOUDY    43  26  51 NW6       29.77S
$$

  *****  SOME WEATHER IN NEARBY STATES *****

CITY           SKY/WX    TMP DP  RH WIND       PRES   REMARKS
GLASGOW MT     PTCLDY    33  30  88 W6        29.76S
GREAT FALLS MT CLOUDY    49  29  46 SW16      29.91S
CHEYENNE WY    CLOUDY    47  27  45 W20G28    30.01S
SCOTTSBLUFF NE   N/A    N/A N/A N/A MISG      29.94S
OMAHA NE       PTCLDY    37  30  75 SE12      29.95F
DES MOINES IA  CLOUDY    31  27  85 SE10      30.08F FOG     WCI  22
DAVENPORT IA   CLOUDY    27  23  85 S13       30.22F WCI  16
CHICAGO IL     MOCLDY    23  19  85 CALM      30.26S
EAU CLAIRE WI  CLOUDY    26  20  77 S9        30.13F WCI  17
LA CROSSE WI   CLOUDY    28  22  78 S14       30.17F WCI  17
$$

  *****  SOME NATIONAL WEATHER *****

CITY           SKY/WX    TMP DP  RH WIND       PRES   REMARKS
LA GUARDIA NY  PTCLDY    18   3  52 NW15G23   29.92R WCI   4
RALEIGH NC     PTCLDY    27  12  53 VRB6      30.07R WCI  20
ATLANTA GA     CLEAR     34  24  67 NW10      30.13R
NEW ORLEANS LA CLEAR     51  38  60 NE7       30.20R
OKLAHOMA CITY  CLEAR     50  36  58 S7        30.03S
ALBUQUERQUE NM PTCLDY    41  30  65 W5        30.25R
SALT LAKE CITY MOCLDY    48  34  58 S14       30.18R
LOS ANGELES CA CLOUDY    58  51  78 CALM      30.17R
BOISE ID       FOG       36  34  93 CALM      30.23R VSB 1/4
SEATTLE WA     CLOUDY    46  45  93 CALM      30.31R
$$

*** WEATHER ACROSS MANITOBA...SASKATCHEWAN AND ONTARIO ***
                ***ONTARIO***

CITY           SKY/WX    TMP DP  RH WIND       PRES   REMARKS
GERALDTON      CLOUDY    23  19  86 SW7       30.06S WCI  15
THUNDER BAY    CLOUDY    25  23  93 NE5       30.10F WCI  19
SIOUX LOOKOUT  FLURRIES  25  23  93 S7        29.97F WCI  17
TORONTO        CLEAR      9   1  72 NW10      30.17R WCI  -6
BIG TROUT LK   CLEAR      1   0  92 N5        30.09R WCI  -8
PICKLE LAKE    NOT AVBL
DRYDEN         MOCLDY    25  25 100 SE6       29.96F WCI  18
KENORA         MOCLDY    27  25  93 SE5       29.93F WCI  21
$$
                *** MANITOBA***

CITY           SKY/WX    TMP DP  RH WIND       PRES   REMARKS
BRANDON        FOG       27  27 100 NE20G25   29.83S VSB 3/8 WCI  13
DAUPHIN        FRZ RAIN  23  23 100 NE12      29.93S VSB 3/8 WCI  12
ISLAND LAKE    FLURRIES  10   7  85 NE5       30.10S WCI   2
PILOT MOUND      N/A     30  30 100 E5          N/A
THE PAS        LGT SNOW   5   1  85 NE6       30.11S WCI  -6
THOMPSON       PTCLDY   -15 -20  76 N8        30.20  WCI -32
WINNIPEG       FRZ DRZL  30  28  93 E8        29.89F FOG     WCI  23
LYNN LAKE      MOCLDY   -18 -22  83 N6        30.19R WCI -33
CHURCHILL      CRYSTALS -17 -22  76 NW23G31   30.17R BLWGSNOWWCI -45
GILLAM         CLEAR    -15 -20  76 NW8       30.21R WCI -32
$$
                ***SASKATCHEWAN***

CITY           SKY/WX    TMP DP  RH WIND       PRES   REMARKS
ESTEVAN        CLOUDY    28  27  93 E7        29.75F WCI  21
KINDERSLEY     CLOUDY    27  27 100 NE9       29.86R WCI  17
LLOYDMINSTER   FLURRIES  21  21 100 E6        29.90  WCI  14
PRINCE ALBERT  LGT SNOW  14  10  85 E14       29.97F DRFTSNOWWCI  -1
REGINA         CLOUDY    28  28 100 E10       29.78R WCI  19
YORKTON        CLOUDY    23  23 100 N9        29.87R WCI  13
N. BATTLEFORD  CLOUDY    28  27  93 NE5       29.94R WCI  23
LA RONGE       CLOUDY     1  -4  78 NE9       30.09F WCI -14
SASKATOON      FLURRIES  27  23  86 E14       29.88R WCI  15
SWIFT CURRENT  FOG       27  27 100 NW6       29.75R VSB 1/4 WCI  20
$$
NOTE: THESE ARE AUTOMATED STATIONS WITH LIMITED QUALITY CONTROL
      "FAIR" INDICATES FEW OR NO CLOUDS BELOW 12,000 FEET WITH NO
      SIGNIFICANT WEATHER AND/OR OBSTRUCTIONS TO VISIBILITY.
      SKY/WX - SKY CONDITION AND SIGNIFICANT WEATHER.
      TMP - AIR TEMPERATURE.    DP   - DEWPOINT TEMPERATURE.
      RH  - RELATIVE HUMIDITY.  PRES - PRESSURE.
      HX  - HEAT INDEX.         WCI  - WIND CHILL INDEX.
$


USA.gov is the U.S. government's official web portal to all federal, state and local government web resources and services.